Lid_Strength_Index
-2 -2 -2 -2 -2 -2 -2 -1 -1 -1 -1 -1 -2 -2 -2 -1 1 7 9 5 2 -1 -0 7 8 8 8 10 9 11 15 16 16 16 16 13 14 13 10 7 6 5 5 4 2
-2 -2 -2 -2 -1 -2 -2 -1 -2 -1 -2 -2 -1 -1 -1 -0 8 9 4 -0 -0 -1 7 9 9 9 11 11 11 12 15 15 15 15 15 14 14 14 12 11 8 7 4 3 3
-1 -2 -1 -1 -1 -2 -2 -1 -2 -2 -2 -2 -2 -1 -1 3 10 10 1 0 1 2 6 8 9 10 12 11 12 13 14 13 13 12 13 13 13 13 14 14 11 10 6 4 3
-0 -1 -1 -1 -1 -2 -1 -1 -2 -2 -2 -2 -2 -1 1 8 14 8 1 2 2 5 7 9 10 11 12 13 11 13 12 12 11 11 12 13 13 14 13 12 8 5 4 4 7
0 0 -0 -1 -1 -1 -2 -2 -2 -2 -2 -2 -2 0 7 10 10 6 2 4 6 7 8 9 10 11 13 12 12 13 13 11 11 11 12 12 13 14 15 14 6 5 6 7 7
0 0 0 -1 -1 -1 -2 -2 -2 -2 -3 -3 -1 1 7 10 6 6 6 6 6 7 8 9 10 10 11 12 13 12 12 12 12 12 12 13 14 14 14 13 7 8 8 8 8
0 0 -0 -0 -1 -1 -2 -2 -2 -2 -2 -2 0 5 8 10 7 6 6 6 6 7 8 8 9 10 11 13 11 12 13 12 13 13 13 13 14 15 14 13 9 9 9 9 10
1 1 0 -0 -0 -1 -1 -1 -1 -1 -1 -1 1 6 9 6 6 6 7 6 5 6 7 7 7 9 11 11 12 13 14 15 13 14 13 13 16 15 14 9 9 10 10 11 11
1 1 0 -0 0 0 -0 -1 0 -0 0 1 6 8 10 4 7 7 8 8 7 6 8 7 9 12 11 13 14 14 17 15 14 14 15 15 17 15 14 11 11 11 11 12 12
1 1 1 0 1 0 1 0 1 3 5 7 7 9 9 10 8 7 8 7 7 8 8 10 12 14 15 15 19 17 16 15 16 15 15 18 18 17 15 14 14 12 13 13 14
2 2 1 1 1 2 5 7 9 10 9 12 11 11 10 8 8 8 8 8 8 10 13 12 15 18 17 16 16 16 16 18 18 15 17 18 18 17 17 16 16 16 15 16 16
2 2 2 1 2 3 7 9 10 10 13 10 10 10 9 9 12 10 8 11 13 15 13 15 17 15 14 15 17 17 18 20 18 17 17 18 18 17 17 17 17 17 17 17 17
3 2 3 2 3 6 8 9 7 9 14 13 11 11 11 10 13 12 10 12 15 16 16 17 17 15 16 17 16 18 19 20 19 18 19 20 19 19 18 18 18 18 18 18 18
3 2 3 3 7 9 10 7 7 9 18 15 13 12 11 12 14 11 11 13 14 17 17 17 16 17 17 17 17 18 17 18 18 21 23 20 23 20 20 19 19 18 19 19 19
3 3 3 4 9 10 9 8 9 11 23 15 14 10 12 14 14 13 12 13 16 16 17 17 18 18 18 17 17 18 17 18 19 22 22 22 26 21 21 21 20 19 19 19 19
3 3 5 8 10 10 9 9 11 17 23 18 15 15 15 15 15 14 14 13 14 16 16 17 16 17 18 17 16 17 18 19 20 23 26 28 26 21 21 20 21 19 19 19 19
3 4 8 9 12 10 9 11 16 21 18 18 17 16 17 17 16 16 17 18 19 20 21 18 18 18 17 19 17 18 21 25 24 26 24 32 27 20 19 20 20 19 19 20 19
4 6 9 10 11 10 11 14 21 24 22 17 16 17 18 17 17 17 18 19 19 19 23 24 21 19 17 19 20 20 22 24 28 27 25 31 26 20 21 20 20 19 19 19 19
6 10 11 10 10 11 13 20 21 20 16 17 17 20 20 18 19 19 20 20 19 19 21 23 21 18 18 18 19 20 24 22 30 37 31 26 22 19 20 21 21 20 20 20 20
11 11 10 10 11 13 17 20 20 16 16 16 19 20 24 22 20 20 21 19 18 18 19 21 24 21 18 18 19 20 20 24 26 29 30 27 30 22 23 23 22 21 21 20 20
12 13 11 11 13 16 21 25 20 16 16 17 19 22 20 21 21 21 20 19 18 19 18 21 24 21 20 24 23 23 24 25 25 24 28 31 25 22 23 24 23 22 20 23 23
14 15 11 12 16 28 24 23 16 17 16 17 18 19 20 20 20 24 21 19 18 18 20 19 21 26 23 22 21 21 22 22 25 28 28 27 25 22 27 28 30 23 21 23 24
15 15 12 12 19 25 21 19 17 17 17 18 18 18 19 23 22 20 20 17 17 18 19 19 25 28 23 23 22 24 21 22 25 23 28 28 23 26 28 28 27 27 25 24 25
15 16 15 17 18 19 22 20 19 16 17 17 18 18 19 23 20 23 19 18 17 17 14 17 21 25 24 23 26 25 23 22 23 28 24 24 20 18 19 25 24 25 26 27 26
16 19 18 20 19 19 19 19 20 20 18 18 19 18 20 23 22 25 20 19 18 16 18 20 27 25 24 24 26 23 22 24 24 22 25 21 27 20 19 23 26 30 31 30 26
16 17 19 21 19 20 18 19 19 20 18 19 21 19 19 22 19 20 20 19 19 19 19 20 27 28 27 24 24 25 23 22 23 22 23 22 23 18 23 33 28 28 30 26 27
17 16 15 18 19 20 19 19 19 19 18 18 18 19 20 18 18 19 18 19 19 19 20 24 28 30 29 28 28 26 25 23 25 27 25 26 22 32 27 27 27 25 26 28 30